Hourly Data Report for June 14, 2021

WESTERN HEAD
NOVA SCOTIA
Current Station Operator: ECCC - MSC

43°59'24.070" N
64°39'51.008" W
10.10 m
8206240
71411
WWE

Download Data

Hourly Data (June 2021)
Hourly Data Report for June 14, 2021
TIME
LST
Temp Definition
°C
Dew Point Definition
°C
Rel Hum Definition
%
Precip. Amount Definition
mm

Wind Dir Definition
10's deg

Wind Spd Definition
km/h
Visibility Definition
km
Stn Press Definition
kPa
Hmdx Definition


Wind Chill Definition


Weather Definition


00:00 10.1 9.3 95 0.0 1 8   101.34     LegendNANA
01:00 9.7 9.3 97 0.0 36 10   101.37     LegendNANA
02:00 9.1 8.9 98 0.0 1 8   101.41     LegendNANA
03:00 8.6 8.6 100 0.0 4 10   101.45     LegendNANA
04:00 8.5 8.5 100 0.0 2 8   101.50     LegendNANA
05:00 8.7 LegendMM LegendMM 0.0 2 9   101.54     LegendNANA
06:00 9.1 LegendMM LegendMM 0.0 3 7   101.58     LegendNANA
07:00 9.4 LegendMM LegendMM 0.0 4 9   101.64     LegendNANA
08:00 9.8 LegendMM LegendMM 0.0 3 9   101.69     LegendNANA
09:00 11.3 LegendMM LegendMM 0.0 4 8   101.69     LegendNANA
10:00 11.7 LegendMM LegendMM 0.0 6 9   101.71     LegendNANA
11:00 12.5 11.4 93 0.0 7 8   101.74     LegendNANA
12:00 13.2 10.8 85 0.0 6 7   101.75     LegendNANA
13:00 12.8 10.4 85 0.0 6 8   101.74     LegendNANA
14:00 14.3 11.8 85 0.0 10 5   101.77     LegendNANA
15:00 15.4 12.7 84 0.0 10 7   101.77     LegendNANA
16:00 14.6 11.4 81 0.0 6 5   101.74     LegendNANA
17:00 14.9 11.7 81 0.0 2 6   101.71     LegendNANA
18:00 14.5 12.0 85 0.0 5 6   101.67     LegendNANA
19:00 12.6 10.7 89 0.0 3 6   101.64     LegendNANA
20:00 10.5 10.3 99 0.0 1 9   101.63     LegendNANA
21:00 10.9 10.9 100 0.0 36 10   101.62     LegendNANA
22:00 11.1 11.1 100 0.0 2 11   101.60     LegendNANA
23:00 11.2 LegendMM LegendMM 0.0 36 7   101.56     LegendNANA

Notes on Data Quality.

Legend

  • E = Estimated
  • M = Missing
  • NA = Not Available*
  • [empty] = Indicates an unobserved value
Date modified: